Welcome to the New NWS' Forecast!
Most changes are behind the scenes, but click here for differences you might notice.

Regional Weather Roundup (RWR)

Issued by National Weather Service (NWS)

                            
465 
ASUS42 KTBW 221818
RWRFL 
FLORIDA REGIONAL WEATHER ROUNDUP
NATIONAL WEATHER SERVICE TAMPA BAY RUSKIN FL
200 PM EDT SAT SEP 22 2018

NOTE: "FAIR" INDICATES FEW OR NO CLOUDS BELOW 12,000 FEET WITH NO
SIGNIFICANT WEATHER AND/OR OBSTRUCTIONS TO VISIBILITY.

FLZ001>010-012>015-112-114-115-221900-
PANHANDLE FLORIDA
  
CITY           SKY/WX    TMP DP  RH WIND       PRES   REMARKS
PENSACOLA      PTSUNNY   88  74  63 E14       30.03F HX  96           
PENSACOLA NAS  MOSUNNY   88  75  65 SE12      30.02F HX  97           
MILTON NAS     HVY RAIN  80  75  84 S17       30.03                   
CRESTVIEW      PTSUNNY   87  73  62 VRB3      30.04F                  
DUKE FIELD     MOSUNNY   88  69  53 E7        30.02F                  
VALPARAISO     MOSUNNY   87  74  63 SE9       30.03F HX  95           
PANAMA CITY    FAIR      91  71  51 NE3       30.02F HX  97           
APALACHICOLA   FAIR      88  77  69 SE9       30.03F HX 100           

STATION/POSITION SKY/WX   TEMP    WIND        PRES    WAVE   SWELL
                          AIR SEA DIR/SP/G            HT/PER HT/PER
                          (F)     (DEG/KT/KT) (MB)    (FT/S) (FT/S)
30.1N   87.6W              82     150/  4/  6 1016.7
29.2N   88.2W                 87  140/  8/ 10 1016.7F   2/ 5   2/ 5
28.8N   86.0W              83 86  100/ 12/ 14   N/A     2/ 5
PANAMA CITY BEAC           85 87  180/  5/  6 1017.3F
TOWER C                    83      80/ 11/ 12 1016.9F

$$
FLZ011-016>038-118-127-128-134-139-239-221900-
NORTH FLORIDA
  
CITY           SKY/WX    TMP DP  RH WIND       PRES   REMARKS
MARIANNA       FAIR      90  69  50 VRB6      30.03F                  
TALLAHASSEE    FAIR      90  69  50 CALM      30.03F                  
PERRY          FAIR      89  69  50 E8        30.03F                  
LIVE OAK       MOSUNNY   88  66  48 N7G13     30.04F                  
CROSS CITY     FAIR      90  71  52 N7        30.02F HX  96           
LAKE CITY      FAIR      86  68  54 NE6       30.04F                  
GAINESVILLE    CLOUDY    87  72  60 E9        30.06F                  
PALATKA        FAIR      86  73  66 E8        30.05S                  
MAYPORT NAS    FAIR      88  72  58 E12       30.05F                  
JACKSONVILLE   PTSUNNY   85  70  60 E10       30.04F                  
JAX NAS        PTSUNNY   87  73  62 N7        30.05F                  
JAX CECIL      MOSUNNY   88  72  58 E12       30.05F                  
ST AUGUSTINE   FAIR      86  72  62 E14       30.05F                  
PALM COAST     MOSUNNY   88  72  58 E9G23     30.04F                  

STATION/POSITION SKY/WX   TEMP    WIND        PRES    WAVE   SWELL
                          AIR SEA DIR/SP/G            HT/PER HT/PER
                          (F)     (DEG/KT/KT) (MB)    (FT/S) (FT/S)
SHELL POINT      NOT AVBL
KEATON BEACH               86      90/  8/  9 1016.9F
CEDAR KEY                  85     130/  5/  6 1016.6F
FERNANDINA                 87 85              1018.7F
30.7N   81.3W                 85                N/A     2/10
MAYPORT                    84 85   70/ 10/ 13 1018.3F
31.4N   80.9W              82 85   70/ 10/ 12 1018.5F   3/ 9   2/ 9
ST AUGUSTINE               83 83   80/ 10/ 11 1017.9F

$$
FLZ040-043>046-052-053-057-058-063-144-221900-
INTERIOR CENTRAL FLORIDA
  
CITY           SKY/WX    TMP DP  RH WIND       PRES   REMARKS
OCALA          FAIR      90  72  55 VRB3      30.03F HX  97           
LEESBURG       FAIR      91  73  55 E12G17    30.03F HX  99           
SANFORD        FAIR      85  75  72 E6        30.03F                  
ORLANDO EXEC   FAIR      87  73  62 E9        30.03F                  
ORLANDO INTL   PTSUNNY   87  72  60 NE14      30.02F                  
KISSIMMEE      PTSUNNY   88  70  55 E13       30.03F                  
WINTER HAVEN   FAIR      89  71  55 E16       30.03F HX  95           
LAKELAND       MOSUNNY   88  72  58 E9G18     30.02F                  
SEBRING        FAIR      91  71  51 E10       29.99F HX  97           
OKEECHOBEE     PTSUNNY   86  73  66 NE6       29.98F                  

$$
FLZ041-047-054-059-064-141-147-221900-
EAST CENTRAL FLORIDA
  
CITY           SKY/WX    TMP DP  RH WIND       PRES   REMARKS
ORMOND BEACH   MOSUNNY   84  73  70 E12G17    30.04F                  
DAYTONA BEACH  PTSUNNY   85  75  72 NE12      30.04F                  
DELAND         CLOUDY    82  73  74 NE6       30.03F                  
NEW SMYRNA BEA MOSUNNY   86  73  66 E7        30.05F                  
TITUSVILLE     PTSUNNY   90  70  51 E9        30.03F HX  95           
MELBOURNE      CLOUDY    86  73  65 E12       30.02F                  
VERO BEACH     PTSUNNY   85  77  77 E13       30.01F HX  95           
FT PIERCE      LGT RAIN  79  77  94 E7        30.01S FOG              
STUART         MOSUNNY   88  75  66 E12       30.02F HX  97           

STATION/POSITION SKY/WX   TEMP    WIND        PRES    WAVE   SWELL
                          AIR SEA DIR/SP/G            HT/PER HT/PER
                          (F)     (DEG/KT/KT) (MB)    (FT/S) (FT/S)
28.5N   80.2W              83      80/ 12/ 14 1016.9F   3/10   2/10
28.9N   78.5W              83 85   70/ 12/ 16 1017.2F
TRIDENT PIER               84 86   60/ 11/ 13 1018.6F
28.4N   80.5W                 86                N/A     2/10
27.5N   80.2W                 84                N/A     4/10   2/11

$$
FLZ050-056-061-142-242-148-248-149-249-151-251-155-255-
160-260-221900-
WEST CENTRAL FLORIDA
  
CITY           SKY/WX    TMP DP  RH WIND       PRES   REMARKS
CRYSTAL RIVER  FAIR      90  72  55 E7        30.01F HX  96           
BROOKSVILLE    FAIR      91  72  53 NE8       30.01F HX  98           
CLEARWATER AIR FAIR      88  70  55 SE7       30.00F                  
ST PETE CLEARW FAIR      89  72  56 E9        30.00F HX  96           
TAMPA INTL     PTSUNNY   92  69  47 E7        30.00F HX  97           
TAMPA EXEC     FAIR      90  72  55 E9        30.01F HX  96           
PLANT CITY     FAIR      91  70  49 E10G16    30.03F HX  97           
MACDILL AFB    FAIR      90  71  53 E12       30.00F HX  95           
PETER O KNIGHT FAIR      90  72  55 E14G20    30.00F HX  96           
ST PETERSBURG  FAIR      88  73  61 E12       29.99F HX  95           
SARASOTA       FAIR      89  72  56 E12       29.98F HX  96           
VENICE         FAIR      90  73  58 E8G14     30.00S HX  98           

STATION/POSITION SKY/WX   TEMP    WIND        PRES    WAVE   SWELL
                          AIR SEA DIR/SP/G            HT/PER HT/PER
                          (F)     (DEG/KT/KT) (MB)    (FT/S) (FT/S)
CLEARWATER BEACH           87 88   70/  8/ 12 1016.2F
MIDDLE TAMPA BAY           85     100/ 11/ 14 1016.2F
VENICE                     87 85   90/  6/  8   N/A

$$
FLZ066-069-070-075>078-162-262-165-265-221900-
SOUTHWEST FLORIDA AND KEYS
  
CITY           SKY/WX    TMP DP  RH WIND       PRES   REMARKS
PUNTA GORDA    FAIR      92  72  51 E9G17     30.00F HX  99           
FT MYERS       FAIR      88  72  58 E7        29.97F                  
SOUTHWEST INTL FAIR      90  73  57 VRB3      29.98F HX  98           
NAPLES         FAIR      88  72  58 E5        29.98F                  
MARCO ISLAND   FAIR      90  73  57 MISG      29.99F HX  98           
IMMOKALEE        N/A     91  75  59 NE10      29.98F HX 102           
MARATHON       FAIR      91  76  61 E8        29.97F HX 103           
KEY WEST NAS   PTSUNNY   86  75  69 N7        29.98F HX  95           
KEY WEST INTL  FAIR      90  77  65 E7        29.98F HX 103           

STATION/POSITION SKY/WX   TEMP    WIND        PRES    WAVE   SWELL
                          AIR SEA DIR/SP/G            HT/PER HT/PER
                          (F)     (DEG/KT/KT) (MB)    (FT/S) (FT/S)
NAPLES                     87 87  110/  4/  8 1015.2F
26.0N   85.6W              83      70/ 12/ 14 1015.7
DRY TORTUGAS               85     110/  8/  9 1015.4F
SAND KEY                   84                 1015.2F
SOMBRERO KEY               85     100/  8/  9 1014.6F
LONG KEY                   85 88  120/  9/ 10 1015.0F
MOLASSES REEF              84 87   40/  2/  5 1015.5F

$$
FLZ067-068-071>074-168-172>174-221900-
SOUTHEAST FLORIDA 
  
CITY           SKY/WX    TMP DP  RH WIND       PRES   REMARKS
W PALM BEACH   PTSUNNY   87  75  67 E12       29.99F HX  96           
BOCA RATON     SUNNY     90  73  58 SE9G16    29.99  HX  98           
FT LAUDER-EXEC FAIR      90  69  50 E13       29.99F                  
FT LAUDERDALE  PTSUNNY   88  76  67 E14       29.98F HX  99           
POMPANO BEACH  FAIR      89  72  56 E10       29.99F HX  96           
PEMBROKE PINES FAIR      90  72  55 E9        29.99F HX  97           
OPA LOCKA      FAIR      90  75  61 E8        29.98F HX 100           
MIAMI          PTSUNNY   88  74  63 E10       29.98F HX  96           
WEST KENDALL   FAIR      88  75  65 E15       29.98F HX  97           
HOMESTEAD      NOT AVBL                                               

STATION/POSITION SKY/WX   TEMP    WIND        PRES    WAVE   SWELL
                          AIR SEA DIR/SP/G            HT/PER HT/PER
                          (F)     (DEG/KT/KT) (MB)    (FT/S) (FT/S)
PORT EVERGLADES            86      70/  7/ 10 1015.6F
VIRGINIA KEY               85 89   80/  6/ 10 1015.3F
LAKE WORTH                 84 87              1016.8F
FOWEY ROCKS                83 86   60/ 10/ 11 1016.2F
SETTLEMENT POINT           84      50/  6/  7 1016.1F

$$